| time (UTC) | temp C | wind direction | speed KPH | gust KPH | rain 1hr cm | rain 24hr cm | rain mn cm | humidity % | barometer mb |
| 20260906113044 | 12 | 167 | 0.0 | 0.0 | 0.00 | 0.00 | 0.00 | 87 | 1014.4 |
| 20260906111547 | 13 | 165 | 0.0 | 0.0 | 0.00 | 0.00 | 0.00 | 87 | 1014.4 |
| 20260906110042 | 13 | 169 | 0.0 | 0.0 | 0.00 | 0.00 | 0.00 | 87 | 1014.3 |
| 20260906104541 | 13 | 169 | 0.0 | 0.0 | 0.00 | 0.00 | 0.00 | 87 | 1014.3 |
| 20260906103046 | 13 | 169 | 0.0 | 0.0 | 0.00 | 0.00 | 0.00 | 87 | 1014.3 |
| 20260906101540 | 13 | 170 | 0.0 | 0.0 | 0.00 | 0.03 | 0.00 | 87 | 1014.2 |
| 20260906100038 | 13 | 157 | 0.0 | 0.0 | 0.00 | 0.03 | 0.00 | 87 | 1014.2 |
| 20260906094544 | 13 | 156 | 0.0 | 0.0 | 0.00 | 0.03 | 0.00 | 87 | 1014.2 |
| 20260906093025 | 13 | 154 | 0.0 | 0.0 | 0.00 | 0.03 | 0.00 | 87 | 1014.2 |
| 20260906091527 | 13 | 155 | 0.0 | 0.0 | 0.00 | 0.03 | 0.00 | 87 | 1014.3 |
| 20260906090026 | 13 | 155 | 0.0 | 0.0 | 0.00 | 0.03 | 0.00 | 87 | 1014.3 |
| 20260906084524 | 13 | 150 | 0.0 | 1.6 | 0.00 | 0.03 | 0.00 | 87 | 1014.2 |
| 20260906083023 | 13 | 120 | 0.0 | 0.0 | 0.00 | 0.03 | 0.00 | 87 | 1014.2 |
| 20260906081523 | 13 | 120 | 0.0 | 0.0 | 0.00 | 0.03 | 0.00 | 86 | 1014.2 |
| 20260906080024 | 13 | 120 | 0.0 | 0.0 | 0.00 | 0.03 | 0.00 | 86 | 1014.2 |
| 20260906074520 | 13 | 129 | 0.0 | 0.0 | 0.00 | 0.03 | 0.00 | 86 | 1014.3 |
| 20260906073007 | 13 | 129 | 0.0 | 0.0 | 0.00 | 0.03 | 0.00 | 86 | 1014.4 |
| 20260906071510 | 13 | 129 | 0.0 | 0.0 | 0.00 | 0.03 | 0.00 | 86 | 1014.4 |
| 20260906070006 | 13 | 129 | 0.0 | 0.0 | 0.00 | 0.03 | 0.00 | 87 | 1014.4 |
| 20260906064506 | 13 | 129 | 0.0 | 0.0 | 0.00 | 0.03 | 0.00 | 87 | 1014.5 |
| 20260906063005 | 13 | 129 | 0.0 | 0.0 | 0.00 | 0.03 | 0.00 | 86 | 1014.5 |
| 20260906061504 | 13 | 129 | 0.0 | 0.0 | 0.00 | 0.03 | 0.00 | 87 | 1014.4 |
| 20260906060004 | 13 | 129 | 0.0 | 0.0 | 0.00 | 0.03 | 0.00 | 86 | 1014.6 |
| 20260906054501 | 13 | 129 | 0.0 | 0.0 | 0.00 | 0.03 | 0.00 | 85 | 1014.6 |
| 20260906053101 | 13 | 129 | 0.0 | 1.6 | 0.00 | 0.03 | 0.00 | 85 | 1014.6 |
| 20260906051546 | 14 | 142 | 0.0 | 0.0 | 0.00 | 0.03 | 0.00 | 84 | 1014.7 |
| 20260906050044 | 14 | 167 | 0.0 | 0.0 | 0.00 | 0.03 | 0.00 | 83 | 1014.7 |
| 20260906044542 | 15 | 141 | 0.0 | 1.6 | 0.00 | 0.03 | 0.00 | 81 | 1014.8 |
| 20260906043040 | 15 | 136 | 0.0 | 0.0 | 0.00 | 0.03 | 0.00 | 79 | 1014.9 |
| 20260906041538 | 15 | 136 | 0.0 | 0.0 | 0.00 | 0.03 | 0.00 | 77 | 1015.0 |
| 20260906040037 | 15 | 123 | 0.0 | 0.0 | 0.00 | 0.03 | 0.00 | 75 | 1015.0 |
| 20260906034551 | 16 | 123 | 0.0 | 0.0 | 0.00 | 0.03 | 0.00 | 73 | 1014.9 |
| 20260906033035 | 16 | 123 | 0.0 | 0.0 | 0.00 | 0.03 | 0.00 | 73 | 1014.7 |
| 20260906031621 | 16 | 123 | 0.0 | 0.0 | 0.00 | 0.03 | 0.00 | 72 | 1014.6 |
| 20260906030018 | 16 | 156 | 0.0 | 0.0 | 0.00 | 0.03 | 0.00 | 73 | 1014.5 |
| 20260906024517 | 16 | 156 | 0.0 | 0.0 | 0.00 | 0.03 | 0.00 | 72 | 1014.6 |
| 20260906023015 | 16 | 156 | 0.0 | 0.0 | 0.00 | 0.03 | 0.00 | 70 | 1014.5 |
| 20260906021512 | 17 | 156 | 0.0 | 0.0 | 0.00 | 0.05 | 0.00 | 68 | 1014.6 |
| 20260906020009 | 17 | 156 | 0.0 | 0.0 | 0.00 | 0.05 | 0.00 | 65 | 1014.6 |
| 20260906014507 | 18 | 156 | 0.0 | 0.0 | 0.00 | 0.05 | 0.00 | 64 | 1014.7 |
| 20260906013002 | 18 | 156 | 0.0 | 0.0 | 0.00 | 0.05 | 0.00 | 63 | 1014.8 |
| 20260906011552 | 19 | 156 | 0.0 | 0.0 | 0.00 | 0.10 | 0.00 | 58 | 1014.7 |
| 20260906010123 | 19 | 156 | 0.0 | 0.0 | 0.00 | 0.10 | 0.00 | 62 | 1014.6 |
| 20260906004608 | 20 | 156 | 0.0 | 0.0 | 0.00 | 0.10 | 0.00 | 60 | 1014.7 |
| 20260906003049 | 20 | 156 | 0.0 | 0.0 | 0.00 | 0.10 | 0.00 | 58 | 1014.8 |
| 20260906001600 | 20 | 158 | 0.0 | 1.6 | 0.00 | 0.28 | 0.00 | 55 | 1014.8 |
| 20260906000047 | 20 | 290 | 0.0 | 1.6 | 0.00 | 0.28 | 0.00 | 58 | 1014.7 |
| 20260905234545 | 20 | 300 | 0.0 | 1.6 | 0.00 | 0.28 | 0.00 | 59 | 1014.7 |
| 20260905233044 | 19 | 127 | 0.0 | 1.6 | 0.00 | 0.28 | 0.00 | 57 | 1014.8 |
| 20260905231531 | 19 | 127 | 0.0 | 1.6 | 0.00 | 0.36 | 0.00 | 59 | 1014.9 |
| 20260905230034 | 19 | 172 | 0.0 | 3.2 | 0.00 | 0.36 | 0.00 | 61 | 1015.0 |
| 20260905224530 | 20 | 151 | 0.0 | 1.6 | 0.00 | 0.36 | 0.00 | 63 | 1015.1 |
| 20260905223041 | 20 | 156 | 0.0 | 1.6 | 0.00 | 0.36 | 0.00 | 58 | 1015.2 |
| 20260905221524 | 20 | 160 | 0.0 | 0.0 | 0.00 | 0.36 | 0.00 | 61 | 1015.3 |
| 20260905220019 | 19 | 145 | 0.0 | 1.6 | 0.00 | 0.36 | 0.00 | 62 | 1015.4 |
| 20260905214516 | 19 | 302 | 0.0 | 1.6 | 0.00 | 0.36 | 0.00 | 64 | 1015.5 |
| 20260905213014 | 18 | 155 | 0.0 | 0.0 | 0.00 | 0.36 | 0.00 | 68 | 1015.6 |
| 20260905211609 | 18 | 148 | 0.0 | 0.0 | 0.00 | 0.36 | 0.36 | 67 | 1015.7 |
| 20260905210117 | 18 | 148 | 0.0 | 0.0 | 0.00 | 0.36 | 0.36 | 67 | 1015.8 |
| 20260905204600 | 18 | 151 | 0.0 | 3.2 | 0.00 | 0.36 | 0.36 | 65 | 1015.9 |
| 20260905203055 | 18 | 121 | 0.0 | 0.0 | 0.00 | 0.36 | 0.36 | 71 | 1016.0 |
| 20260905201553 | 17 | 122 | 0.0 | 1.6 | 0.00 | 0.36 | 0.36 | 72 | 1016.0 |
| 20260905200114 | 17 | 120 | 0.0 | 1.6 | 0.00 | 0.36 | 0.36 | 72 | 1016.0 |
| 20260905194553 | 17 | 95 | 0.0 | 1.6 | 0.00 | 0.36 | 0.36 | 74 | 1016.1 |
| 20260905193052 | 17 | 158 | 0.0 | 4.8 | 0.00 | 0.36 | 0.36 | 72 | 1016.1 |
| 20260905191541 | 16 | 137 | 0.0 | 1.6 | 0.00 | 0.36 | 0.36 | 74 | 1016.2 |
| 20260905190040 | 16 | 131 | 0.0 | 0.0 | 0.00 | 0.36 | 0.36 | 77 | 1016.3 |
| 20260905184548 | 16 | 281 | 0.0 | 0.0 | 0.00 | 0.36 | 0.36 | 80 | 1016.5 |
| 20260905183043 | 16 | 281 | 0.0 | 0.0 | 0.00 | 0.36 | 0.36 | 79 | 1016.6 |
| 20260905181637 | 16 | 283 | 0.0 | 1.6 | 0.00 | 0.36 | 0.36 | 83 | 1016.6 |
| 20260905180041 | 15 | 289 | 0.0 | 0.0 | 0.00 | 0.36 | 0.36 | 83 | 1016.7 |
| 20260905174537 | 15 | 261 | 0.0 | 1.6 | 0.00 | 0.36 | 0.36 | 85 | 1016.7 |
| 20260905173043 | 15 | 161 | 0.0 | 0.0 | 0.00 | 0.36 | 0.36 | 91 | 1016.7 |
| 20260905171517 | 14 | 153 | 0.0 | 0.0 | 0.00 | 0.38 | 0.36 | 92 | 1016.7 |
| 20260905170018 | 13 | 158 | 0.0 | 0.0 | 0.00 | 0.38 | 0.36 | 94 | 1016.8 |
| 20260905164505 | 13 | 158 | 0.0 | 0.0 | 0.00 | 0.38 | 0.36 | 95 | 1016.8 |
| 20260905163004 | 12 | 158 | 0.0 | 0.0 | 0.00 | 0.38 | 0.36 | 96 | 1016.8 |
| 20260905161504 | 12 | 136 | 0.0 | 1.6 | 0.00 | 0.38 | 0.36 | 96 | 1016.8 |
| 20260905160004 | 12 | 133 | 0.0 | 0.0 | 0.00 | 0.38 | 0.36 | 97 | 1016.7 |
| 20260905154501 | 12 | 269 | 0.0 | 0.0 | 0.00 | 0.38 | 0.36 | 97 | 1016.7 |
| 20260905153001 | 12 | 269 | 0.0 | 0.0 | 0.00 | 0.38 | 0.36 | 97 | 1016.7 |
| 20260905151628 | 12 | 270 | 0.0 | 0.0 | 0.00 | 0.38 | 0.36 | 97 | 1016.6 |
| 20260905150057 | -17 | 0.0 | 0.0 | 0.00 | 0.38 | 0.36 | 1016.6 | ||
| 20260905144545 | -17 | 0.0 | 0.0 | 0.00 | 0.38 | 0.36 | 1016.6 | ||
| 20260905143037 | -17 | 0.0 | 0.0 | 0.00 | 0.38 | 0.36 | 1016.6 | ||
| 20260905141532 | -17 | 0.0 | 0.0 | 0.00 | 0.38 | 0.36 | 1016.5 | ||
| 20260905140027 | -17 | 0.0 | 0.0 | 0.00 | 0.38 | 0.36 | 1016.4 | ||
| 20260905134532 | -17 | 0.0 | 0.0 | 0.00 | 0.38 | 0.36 | 1016.4 | ||
| 20260905133019 | -17 | 0.0 | 0.0 | 0.00 | 0.38 | 0.36 | 1016.3 | ||
| 20260905131515 | -17 | 0.0 | 0.0 | 0.00 | 0.38 | 0.36 | 1016.4 | ||
| 20260905130011 | -17 | 0.0 | 0.0 | 0.00 | 0.38 | 0.36 | 1016.2 | ||
| 20260905124556 | -17 | 0.0 | 0.0 | 0.00 | 0.38 | 0.36 | 1016.1 | ||
| 20260905123107 | -17 | 0.0 | 0.0 | 0.00 | 0.38 | 0.36 | 1016.0 | ||
| 20260905121549 | 11 | 285 | 0.0 | 0.0 | 0.00 | 0.41 | 0.36 | 96 | 1015.9 |
| 20260905120048 | 11 | 285 | 0.0 | 0.0 | 0.00 | 0.41 | 0.36 | 96 | 1015.9 |
| 20260905114549 | 11 | 285 | 0.0 | 0.0 | 0.00 | 0.41 | 0.36 | 96 | 1015.9 |